This demonstration page uses our WeatherBlox Daily Observations layout. Learn more.

Left ArrowRight Arrow

34.02893, -84.19858

Hourly Observations for August 5, 2020

Temp ( °F °C ) Dew Point ( °F °C ) Humidity (%) Winds ( mph kmh ) Pressure ( in mb ) Visibility ( mi km ) Precip ( " mm )
12:53 am 00:53 Clear 74 23.3 69 20.6 85 85 N 3 6 29.96 1015 10 16 0.00 0.00
1:53 am 01:53 Clear 72 22.2 69 20.6 91 91 N 3 6 29.96 1015 10 16 0.00 0.00
2:53 am 02:53 Mostly Clear 73 22.8 69 20.6 87 87 Calm 29.96 1014 10 16 0.00 0.00
3:53 am 03:53 Clear 71 21.7 68 20 90 90 NNE 3 6 29.95 1014 10 16 0.00 0.00
4:53 am 04:53 Clear 70 21.1 68 20 93 93 Calm 29.96 1015 10 16 0.00 0.00
5:53 am 05:53 Clear 70 21.1 68 20 93 93 N 3 6 29.96 1015 10 16 0.00 0.00
6:53 am 06:53 Sunny 71 21.7 68 20 90 90 Calm 29.97 1015 10 16 0.00 0.00
7:53 am 07:53 Sunny 73 22.8 69 20.6 87 87 Calm 29.98 1015 10 16 0.00 0.00
8:53 am 08:53 Sunny 77 25 70 21.1 79 79 Calm 29.98 1015 10 16 0.00 0.00
9:53 am 09:53 Sunny 80 26.7 70 21.1 71 71 NE 5 7 29.98 1015 10 16 0.00 0.00
10:53 am 10:53 Sunny 82 27.8 70 21.1 67 67 ESE 3 6 29.98 1015 10 16 0.00 0.00
11:53 am 11:53 Sunny 86 30 70 21.1 59 59 VRB 5 7 29.99 1016 10 16 0.00 0.00
12:53 pm 12:53 Partly Cloudy 88 31.1 69 20.6 54 54 SSE 5 7 29.98 1015 10 16 0.00 0.00
1:53 pm 13:53 Mostly Cloudy 86 30 69 20.6 57 57 VRB 3 6 29.98 1015 10 16 0.00 0.00
2:53 pm 14:53 Mostly Cloudy 88 31.1 68 20 52 52 VRB 3 6 29.96 1014 10 16 0.00 0.00
3:05 pm 15:05 Mostly Cloudy with Nearby Thunderstorms 86 30 68 20 55 55 VRB 3 6 29.95 1014 10 16 0.00 0.00
3:53 pm 15:53 Cloudy with Nearby Thunderstorms 81 27.2 69 20.6 67 67 SW 10 17 29.98 1015 10 16 0.00 0.00
4:16 pm 16:16 Cloudy 76 24.4 70 21.1 82 82 S 7 11 29.99 1016 10 16 0.00 0.00
4:53 pm 16:53 Partly Cloudy 80 26.7 70 21.1 71 71 ESE 3 6 29.95 1014 10 16 0.00 0.00
5:53 pm 17:53 Sunny 87 30.6 68 20 53 53 Calm 29.93 1014 10 16 0.00 0.00
6:53 pm 18:53 Sunny 83 28.3 70 21.1 65 65 W 5 7 29.93 1014 10 16 0.00 0.00
7:53 pm 19:53 Sunny 83 28.3 72 22.2 70 70 Calm 29.92 1013 10 16 0.00 0.00
8:53 pm 20:53 Clear 79 26.1 70 21.1 74 74 NNE 3 6 29.93 1014 10 16 0.00 0.00
9:53 pm 21:53 Clear 75 23.9 72 22.2 90 90 Calm 29.95 1014 8 13 0.00 0.00
10:53 pm 22:53 Mostly Cloudy 75 23.9 72 22.2 90 90 Calm 29.96 1015 10 16 0.00 0.00
11:53 pm 23:53 Clear 76 24.4 70 21.1 82 82 VRB 3 6 29.95 1014 10 16 0.00 0.00

Powered by AerisWeather